Вернуться в каталог

STARLINK-3161

АктивенСвязьVLEO
NORAD 49422·PAYLOAD·🇺🇸 United States

Запущен Nov 13, 2021 с Cape Canaveral Space Force Station

Loading…

Ближайшие Пролёты (ближайшие 24 часа)

TLE

СвежийSource: CelesTrak SupGP

Эпоха: Sep 14, 2026, 21:05 UTC

1 49422C 21104Q   26257.87895833 -.00006383  00000+0 -18263-3 0  2573
2 49422  53.1577  87.8726 0001257  83.3076 322.3592 15.35398629    19

Отслеживайте STARLINK-3161 в реальном времени с AllMySat

Download on the App Store